Weather in Klimovskoe

Russia / Vologda Oblast     59°20′50″N   38°01′01″E
temp.,
°C
wind,
m/s
gust,
m/s
humid.,
%
clouds,
%
prec.,
mm/h
press.,
hPa
HPBL,
m
21 january, fri
fri2100:00−2s61293100 0.9 995789
03:00−3s61296100 1.7 996641
06:00−3s51295100 0.6 996546
09:00−4sse51094100 0.8 998410
12:00−4sse4994100 0.1 1000365
15:00−6ese4894100 0.1 1001354
18:00−7ese4896100 0.5 1001450
21:00−7e4995100 1.8 1002520
22 january, sat
sat2200:00−8e51095100 1.3 1003592
03:00−8e499393 1.7 1005430
06:00−11e499597 0.1 1007260
09:00−10e4895100 0.3 1009327
12:00−8e379496 0.2 1011386
15:00−8e369483 0.3 1013275
18:00−13ene369978 0.0 101686
21:00−15ene2310084 0.1 101841
23 january, sun
sun2300:00−17ne2210089 0.0 102020
03:00−16ne229977 0.1 102231
06:00−20nne2210092 0.0 102413
09:00−21nne2210097 0.1 102610
12:00−14ese009786 0.0 102752
15:00−13w119721 0.0 10299
18:00−19wsw1110073 0.0 10329
21:00−21sw1110089 0.0 10339
24 january, mon
mon2400:00−21sw22100100 0.0 103519
03:00−22ssw1210098 0.0 103615
06:00−22sw22100100 0.0 103627
09:00−20ssw3610098 0.0 103781
12:00−13ssw399661 0.0 1035188
15:00−12s4109563 0.0 1034223
18:00−13s4129532 0.0 1033206
21:00−13ssw413946 0.0 1031229
25 january, tue
tue2500:00−13s514946 0.0 1029275
03:00−13s5159445 0.0 1026305
06:00−13s5169214 0.0 1023320
09:00−14s515926 0.0 1021301
12:00−11s6168946 0.0 1018457
15:00−9s61591100 0.1 1015536
18:00−8s61394100 1.4 1014536
21:00−8s5119499 2.1 1013411